Location: *
(51.1248°S, 108.4023°W)
Time: 01:09:17
(UTC+00:00)

Cosmos 1544 - Pass Details

Date: 31 October 2021
Orbit: 467 x 486 km, 82.5° (Epoch: 01 December)

Event Time Altitude Azimuth Distance (km) Brightness Sun altitude
Exits shadow 08:25:41 31° 244° (WSW) 873 4.3 -21.9°
Drops below altitude 10° 08:28:47 10° 187° (S) 1,691 6.6 -21.7°
Sets 08:31:05 0° 176° (S) 2,584 8.0 -21.5°
